Location: Eymir
(36.7333°N, 29.7833°E)
Time: 18:16:17
(UTC+00:00)

Lacrosse 4 Rocket - Pass Details

Date: 14 January 2026
Orbit: 512 x 564 km, 68.0° (Epoch: 17 February)

Event Time Altitude Azimuth Distance (km) Brightness Sun altitude
Rises 03:51:24 0° 184° (S) 2,667 5.0 -16.1°
Reaches altitude 10° 03:53:44 10° 175° (S) 1,771 4.2 -15.6°
Maximum altitude 03:57:18 34° 110° (ESE) 886 3.1 -15.0°
Drops below altitude 10° 04:00:52 10° 45° (NE) 1,758 4.3 -14.3°
Sets 04:03:09 0° 36° (NE) 2,643 5.1 -13.8°
